This is the latest recevied weather packets stored in our database for station/object vk4zu-13. If no packets are shown the sender has not sent any weather packets the latest 10 day(s).
| Time | Temp. | Humidity | Pressure | Rain* | Wind** | Luminosity | Snow |
|---|---|---|---|---|---|---|---|
| 1778220181 | 21.11° C | 38% | 1016.8 hPa | 0 mm | - | 204 W/m² | - |
| 1778220044 | 21.11° C | 39% | 1016.7 hPa | 0 mm | - | 163 W/m² | - |
| 1778219976 | 21.11° C | 40% | 1016.7 hPa | 0 mm | - | 141 W/m² | - |
| 1778219906 | 21.67° C | 37% | 1016.8 hPa | 0 mm | - | 65 W/m² | - |
| 1778219835 | 21.11° C | 36% | 1016.8 hPa | 0 mm | - | 91 W/m² | - |
| 1778219765 | 21.11° C | 38% | 1016.7 hPa | 0 mm | - | 114 W/m² | - |
| 1778219695 | 21.11° C | 39% | 1016.7 hPa | 0 mm | - | 84 W/m² | - |
| 1778219628 | 21.11° C | 39% | 1016.7 hPa | 0 mm | - | 130 W/m² | - |
| 1778219562 | 21.11° C | 36% | 1016.6 hPa | 0 mm | - | 207 W/m² | - |
| 1778219500 | 21.11° C | 35% | 1016.7 hPa | 0 mm | - | 199 W/m² | - |
| 1778219441 | 21.11° C | 37% | 1016.7 hPa | 0 mm | - | 167 W/m² | - |
| 1778219376 | 21.11° C | 38% | 1016.8 hPa | 0 mm | - | 171 W/m² | - |
| 1778219313 | 21.67° C | 35% | 1016.8 hPa | 0 mm | - | 142 W/m² | - |
| 1778219277 | 21.67° C | 34% | 1016.7 hPa | 0 mm | - | 72 W/m² | - |
| 1778219189 | 21.67° C | 34% | 1016.7 hPa | 0 mm | - | 146 W/m² | - |
| 1778219127 | 21.67° C | 33% | 1016.8 hPa | 0 mm | - | 144 W/m² | - |
| 1778219057 | 21.67° C | 33% | 1016.9 hPa | 0 mm | - | 121 W/m² | - |
| 1778218996 | 21.67° C | 31% | 1016.9 hPa | 0 mm | - | 163 W/m² | - |
| 1778218931 | 21.67° C | 32% | 1016.8 hPa | 0 mm | - | 190 W/m² | - |
| 1778218802 | 21.67° C | 31% | 1016.8 hPa | 0 mm | - | 322 W/m² | - |
| 1778218730 | 22.22° C | 34% | 1016.9 hPa | 0 mm | - | 329 W/m² | - |
| 1778218664 | 21.67° C | 35% | 1016.8 hPa | 0 mm | - | 346 W/m² | - |
| 1778218591 | 21.67° C | 35% | 1016.9 hPa | 0 mm | - | 357 W/m² | - |
| 1778218520 | 21.67° C | 31% | 1016.9 hPa | 0 mm | - | 380 W/m² | - |
| 1778218459 | 21.67° C | 31% | 1016.9 hPa | 0 mm | - | 380 W/m² | - |
* Rain latest hour (hover to see other rain measurements)
** Current wind speed in m/s (hover to see current wind gust speed)